Regional Weather Roundup
Issued by NWS

Home | Current Version | Previous Version | Graphics & Text | Print | Product List | Glossary On
Versions: 1 2 3 4 5 6 7 8 9 10 11 12 13 14 15 16 17 18 19 20 21 22 23 24 25 26 27
000
ASUS45 KTFX 012110
RWRMT
MONTANA REGIONAL WEATHER ROUNDUP
NATIONAL WEATHER SERVICE GREAT FALLS MT
300 PM MDT SUN MAY 01 2016

NOTE: "FAIR" INDICATES FEW OR NO CLOUDS BELOW 12000 FEET WITH NO
SIGNIFICANT WEATHER AND/OR OBSTRUCTIONS TO VISIBILITY.

MTZ001>007-043-012200-
WEST OF THE DIVIDE

CITY           SKY/WX    TMP DP  RH WIND       PRES   REMARKS
KALISPELL      SUNNY     67  32  27 VRB3      30.17F
MISSOULA       SUNNY     64  33  31 S6        30.17F
BUTTE          SUNNY     57  23  26 SE12G20   30.21F
MULLAN PASS    SUNNY     54  32  43 CALM      30.21F
ANACONDA         N/A     57  27  30 W3        30.20F
DEER LODGE       N/A     59  32  36 W5        30.21F
EUREKA           N/A     66  34  30 N6        30.19F
HAMILTON         N/A     63  34  34 N3        30.17F
LIBBY            N/A     66  36  32 W3        30.16F
$$

MTZ008-052>055-012200-
SOUTHWEST MONTANA

CITY           SKY/WX    TMP DP  RH WIND       PRES   REMARKS
BOZEMAN        SUNNY     61  27  27 VRB3      30.20F
DILLON         SUNNY     58  29  33 VRB6      30.19F
ENNIS          SUNNY     55  28  35 VRB5G15   30.25F
TWIN BRIDGES     N/A     59  26  28 N7        30.16F
$$

MTZ009-010-012-014-046-048-049-054-012200-
EAST SLOPES AND CENTRAL MONTANA

CITY           SKY/WX    TMP DP  RH WIND       PRES   REMARKS
CUT BANK       SUNNY     60  32  34 S7        30.24F
GREAT FALLS    SUNNY     61  32  33 VRB3      30.24F
MALMSTROM AFB  SUNNY     60  33  35 N13G20    30.23F
HELENA         SUNNY     64  29  26 VRB3      30.21F
CHOTEAU          N/A     59  30  33 SE7       30.25F
CONRAD           N/A     61  38  42 E7        30.24F
$$

MTZ011-013-016-021-045-047-050-051-012200-
NORTH CENTRAL MONTANA

CITY           SKY/WX    TMP DP  RH WIND       PRES   REMARKS
HAVRE          SUNNY     63  35  35 CALM      30.24F
LEWISTOWN      SUNNY     61  30  31 NE8       30.25F
N BAR RANCH      N/A     55  27  33 VRB3      30.29F
CHINOOK          N/A     64  36  34 CALM      30.24F
$$

MTZ017>020-022>027-061-062-012200-
NORTHEAST MONTANA

CITY           SKY/WX    TMP DP  RH WIND       PRES   REMARKS
GLASGOW        SUNNY     65  31  28 VRB6      30.24F
JORDAN           N/A     63  31  30 NW7       30.26F
SIDNEY         SUNNY     64  28  25 N5        30.24F
WOLF POINT     SUNNY     66  30  26 S8        30.22F
PLENTYWOOD       N/A     66  25  20 W9        30.21F
POPLAR           N/A     64  28  25 SW3       30.23F
SCOBEY           N/A     67  28  23 SW5       30.19F
$$

MTZ028>42-056>058-012200-
SOUTHCENTRAL AND SOUTHEAST MONTANA

CITY           SKY/WX    TMP DP  RH WIND       PRES   REMARKS
BAKER          MOSUNNY   61  29  29 W9        30.26F
BILLINGS       CLOUDY    58  28  32 E7        30.25F
LIVINGSTON     SUNNY     60  30  32 NE20G26   30.21F
MILES CITY     MOSUNNY   61  29  29 S3        30.26F
FORSYTH          N/A     61  28  29 E3        30.26F
LAUREL           N/A     59  29  32 NE5       30.21F
ROUNDUP          N/A     59  30  33 NE2       30.15F
$$

REGIONAL REPORTS...DAKOTAS

CITY           SKY/WX    TMP DP  RH WIND       PRES   REMARKS
WILLISTON      SUNNY     65  26  23 VRB7      30.22F
MINOT          SUNNY     68  24  19 VRB5      30.20F
DICKINSON      SUNNY     62  27  26 N13       30.21F
BEACH            N/A     63  27  25 W8        30.27F
CROSBY           N/A     66  23  19 CALM      30.22F
TIOGA            N/A     63  23  22 NW13      30.26F
WATFORD CITY     N/A     64  23  20 N10       30.23F
BISMARCK       SUNNY     64  28  25 VRB7      30.23F
GRAND FORKS    SUNNY     65  29  25 VRB5      30.18F
FARGO          SUNNY     67  28  23 N14       30.17F
BUFFALO SD       N/A     61  27  27 NW9       30.19F
RAPID CITY     SUNNY     56  31  38 N10       30.26F
$$

REGIONAL REPORTS...WYOMING/IDAHO/WASHINGTON

CITY           SKY/WX    TMP DP  RH WIND       PRES   REMARKS
GILLETTE       SUNNY     54  29  38 VRB6      30.27F
SHERIDAN       SUNNY     57  30  35 CALM      30.26F
BUFFALO WY       N/A    N/A N/A N/A MISG      30.28F
CODY           SUNNY     54  27  35 E7        30.26F
YELLOWSTONE LA   N/A     44  13  28 E5        30.28S
IDAHO FALLS    MOSUNNY   60  25  26 N6        30.14F
SALMON         SUNNY     63  34  34 NW10      30.13F
BOISE          SUNNY     67  36  31 NE5       30.08F
SPOKANE        MOSUNNY   69  35  28 E14G20    30.13F
$$

REGIONAL REPORTS...ALBERTA

CITY           SKY/WX    TMP DP  RH WIND       PRES   REMARKS
EDMONTON       SUNNY     72  36  26 W13       30.11F
CALGARY        PTSUNNY   66  28  24 SE5       30.19F
LETHBRIDGE     MOSUNNY   66  32  28 S12G18    30.20F
MEDICINE HAT   PTSUNNY   68  37  32 S9G17     30.20F
WATERTON GATE    N/A     64  30  27 NE3         N/A
CARDSTON         N/A     66  30  26 S5          N/A
MILK RIVER       N/A     63  34  34 S8G17       N/A
$$

REGIONAL REPORTS...SASKATCHEWAN

CITY           SKY/WX    TMP DP  RH WIND       PRES   REMARKS
SWIFT CURRENT  SUNNY     66  30  26 W17G23    30.19F
REGINA         PTSUNNY   70  34  26 NW12G23   30.16F
SASKATOON      MOSUNNY   72  32  23 W15G23    30.11F
CYPRESS HILLS    N/A     59  30  33 W6          N/A
VAL MARIE        N/A     66  27  22 W9G20       N/A
ROCKGLEN         N/A     63  28  27 W9          N/A
ASSINIBOIA       N/A     73  28  19 NW12G17     N/A
$$




USA.gov is the U.S. government's official web portal to all federal, state and local government web resources and services.